Weather in Cayo Coco

Cuba     22°29′21″N   78°27′59″W
temp.,
°C
wind,
m/s
gust,
m/s
humid.,
%
clouds,
%
prec.,
mm/h
press.,
hPa
HPBL,
m
24 july, sat
sat2423:00+28e67785 0.0 1018808
02:00+28ese567282 0.1 1016765
05:00+27e557679 0.0 1015764
08:00+27se457913 0.7 1016460
11:00+28e4478100 3.4 1017432
14:00+28ene447787 3.5 1016556
17:00+28ene557846 0.0 1014542
20:00+28ene657979 0.0 1014594
25 july, sun
sun2523:00+28e55805 0.0 1015625
02:00+27ese448223 1.0 1014408
05:00+27ese44815 0.3 1013588
08:00+27ese448197 0.4 1014573
11:00+28ese347916 0.0 1014634
14:00+28ene547510 0.0 1014491
17:00+28ene667473 0.4 1012533
20:00+28e6778100 0.7 1013545
26 july, mon
mon2623:00+28ese78809 1.9 1014568
02:00+28se667615 2.2 1013677
05:00+27se5578100 0.0 1013578
08:00+27se44785 0.0 1014492
11:00+27se33774 0.0 1015392
14:00+28ene33712 0.1 1015325
17:00+29ene447282 1.6 1014378
20:00+29e547666 4.3 1015326
27 july, tue
tue2723:00+28ese557729 0.1 1016365
02:00+28sse55795 2.6 1015317
05:00+27s44795 0.8 1015259
08:00+27ssw11784 0.8 1016156
11:00+27e117737 0.0 1017270
14:00+28ne32745 0.0 1017305
17:00+29ne55737 0.0 1016524
20:00+29ene5680100 0.0 1016515
28 july, wed
wed2823:00+28ene5679100 0.0 1017479
02:00+28e557854 0.0 1016650
05:00+28e5580100 0.0 1015710
08:00+28e557913 0.0 1016671
11:00+28ene347731 0.0 1017625
14:00+29ne44775 0.1 1016438
17:00+29e66775 0.2 1016553
20:00+28e77755 0.2 1016657